Waarnemingen

Advertentie
Mijn weer
Santander, Spanje (8023): temperatuur & dauwpunt: 08.12.2018 16:00:00 - 14.12.2018 16:00:00 (CET)Santander, Spanje (8023): windsnelheid & windstoten: 08.12.2018 16:00:00 - 14.12.2018 16:00:00 (CET)Santander, Spanje (8023): windrichting: 08.12.2018 16:00:00 - 14.12.2018 16:00:00 (CET)Santander, Spanje (8023): luchtdruk: 08.12.2018 16:00:00 - 14.12.2018 16:00:00 (CET)Santander, Spanje (8023): zicht: 08.12.2018 16:00:00 - 14.12.2018 16:00:00 (CET)Santander, Spanje (8023): neerslag: 08.12.2018 16:00:00 - 14.12.2018 16:00:00 (CET)
Datum & Tijd tt [°C] td [°C] ff [km/u] ff [kn] fx [km/u] fx [kn] dd ppp [hPa] vv [km] rr [mm]
14.12.2018 16:00:00 - - - - - - - - - -
14.12.2018 15:00:00 13,0 8,1 28 15 - - WNW 1022,6 9 0,0
14.12.2018 14:00:00 12,9 8,0 29 16 - - W 1022,5 12 0,0
14.12.2018 13:00:00 12,4 8,1 29 16 - - W 1023,1 10 -
14.12.2018 12:00:00 11,9 8,4 35 19 - - W 1023,2 10 0,0
14.12.2018 11:00:00 11,3 8,7 41 22 - - W 1022,4 11 0,2
14.12.2018 10:00:00 10,9 8,6 42 23 - - W 1021,4 10 -
14.12.2018 09:00:00 10,6 8,7 37 20 - - W 1020,5 2,3 2,0
14.12.2018 08:00:00 10,4 9,0 39 21 - - W 1019,9 6 0,2
14.12.2018 07:00:00 10,6 8,7 41 22 - - W 1019,4 10 -
14.12.2018 06:00:00 10,9 8,6 44 24 - - W 1018,4 10 0,2
14.12.2018 05:00:00 11,1 8,5 42 23 - - W 1017,8 10 0,0
14.12.2018 04:00:00 11,0 8,4 39 21 - - W 1017,3 10 -
14.12.2018 03:00:00 11,1 8,5 41 22 - - W 1016,9 11 0,4
14.12.2018 02:00:00 11,2 8,8 39 21 - - W 1016,8 10 0,0
14.12.2018 01:00:00 10,8 8,7 46 25 - - W 1016,7 10 -
14.12.2018 00:00:00 11,3 9,0 44 24 - - W 1016,1 11 1,0
13.12.2018 23:00:00 11,2 9,1 44 24 - - W 1015,2 11 0,2
13.12.2018 22:00:00 10,9 9,5 35 19 - - W 1014,7 10 -
13.12.2018 21:00:00 11,2 8,9 39 21 - - W 1014,4 10 0,0
13.12.2018 20:00:00 11,0 8,4 42 23 - - WNW 1013,6 - 1,0
13.12.2018 19:00:00 12,4 8,7 44 24 - - WNW 1012,7 10 -
13.12.2018 18:00:00 12,0 8,5 41 22 - - WNW 1012,3 8 0,0
13.12.2018 17:00:00 11,9 8,7 42 23 93 50 WNW 1011,4 8 0,8
13.12.2018 16:00:00 12,1 7,8 57 31 - - NW 1009,9 9 -
13.12.2018 15:00:00 11,0 9,3 50 27 76 41 WNW 1008,5 3,2 0,8
13.12.2018 14:00:00 11,2 8,6 44 24 - - W 1008,1 10 0,0
13.12.2018 13:00:00 11,8 7,9 39 21 - - W 1007,6 18 -
13.12.2018 12:00:00 11,2 8,9 34 18 - - W 1008,0 19 0,4
13.12.2018 11:00:00 9,9 8,0 13 7 - - ZW 1008,1 13 1,0
13.12.2018 10:00:00 10,4 8,3 34 18 - - W 1007,5 8 -
13.12.2018 09:00:00 11,0 9,3 39 21 - - W 1006,2 9 2,0
13.12.2018 08:00:00 12,6 9,2 37 20 - - WNW 1005,2 14 0,2
13.12.2018 07:00:00 13,1 9,5 41 22 - - W 1004,3 10 -
13.12.2018 06:00:00 14,3 7,6 28 15 - - ZZW 1002,7 20 0,0
13.12.2018 05:00:00 13,7 8,1 31 17 - - Z 1003,8 20 0,0
13.12.2018 04:00:00 12,9 8,6 24 13 - - Z 1005,1 20 -
13.12.2018 03:00:00 14,1 7,6 24 13 - - ZZW 1006,1 15 0,0
13.12.2018 02:00:00 14,4 7,2 35 19 - - ZZW 1005,8 20 0,0
13.12.2018 01:00:00 14,0 6,8 29 16 - - Z 1006,7 20 -
13.12.2018 00:00:00 13,6 7,1 29 16 - - Z 1008,0 20 0,0
12.12.2018 23:00:00 11,0 8,9 13 7 - - ZZO 1010,1 11 0,0
12.12.2018 22:00:00 10,7 8,5 8 4 - - ZO 1010,8 10 -
12.12.2018 21:00:00 11,4 8,8 4 2 - - O 1012,8 10 0,0
12.12.2018 20:00:00 11,3 8,5 9 5 - - O 1013,1 9 0,0
12.12.2018 19:00:00 11,4 8,6 15 8 - - ZO 1014,0 10 -
12.12.2018 18:00:00 11,7 8,9 11 6 - - OZO 1015,7 10 0,0
12.12.2018 17:00:00 12,0 8,7 8 4 - - OZO 1016,7 17 0,0
12.12.2018 16:00:00 12,3 8,4 5 3 - - ZO 1017,5 10 -
12.12.2018 15:00:00 12,8 8,5 8 4 - - OZO 1017,9 18 0,0
12.12.2018 14:00:00 13,1 8,2 5 3 - - N 1019,0 11 0,0
12.12.2018 13:00:00 12,9 8,8 5 3 - - ZW 1020,2 15 -
12.12.2018 12:00:00 12,2 8,8 9 5 - - ZZW 1021,1 20 0,0
12.12.2018 11:00:00 11,6 9,2 11 6 - - ZZW 1021,7 20 0,0
12.12.2018 10:00:00 11,2 9,1 13 7 - - ZZW 1022,1 15 -
12.12.2018 09:00:00 11,0 9,3 11 6 - - WZW 1022,5 15 0,0
12.12.2018 08:00:00 11,2 9,5 13 7 - - WZW 1022,6 16 0,0
12.12.2018 07:00:00 11,6 9,8 16 9 - - WNW 1022,6 12 -
12.12.2018 06:00:00 11,4 10,1 9 5 - - WZW 1022,6 16 0,4
12.12.2018 05:00:00 11,5 10,2 18 10 - - W 1022,6 2,5 2,0
12.12.2018 04:00:00 12,3 10,7 16 9 - - W 1023,0 15 -
12.12.2018 03:00:00 12,3 10,4 26 14 - - WNW 1022,9 6 0,2
12.12.2018 02:00:00 13,0 10,9 21 11 - - WNW 1022,7 10 0,0
12.12.2018 01:00:00 12,5 8,8 18 10 - - WZW 1022,8 18 -
12.12.2018 00:00:00 12,9 8,4 15 8 - - WZW 1022,7 20 0,0
11.12.2018 23:00:00 13,1 7,3 11 6 - - ZW 1022,5 20 0,0
11.12.2018 22:00:00 12,8 7,0 13 7 - - ZW 1022,2 20 -
11.12.2018 21:00:00 12,2 7,7 16 9 - - WZW 1022,6 19 0,0
11.12.2018 20:00:00 11,6 5,2 21 11 - - WZW 1022,2 13 0,0
11.12.2018 19:00:00 13,1 4,0 16 9 - - WZW 1021,2 17 -
11.12.2018 18:00:00 13,4 3,2 15 8 - - WZW 1020,5 17 0,0
11.12.2018 17:00:00 14,3 4,6 15 8 - - WZW 1020,1 17 0,0
11.12.2018 16:00:00 12,6 7,7 9 5 - - ZW 1020,1 12 -
11.12.2018 15:00:00 13,9 6,3 5 3 - - W 1020,2 14 0,0
11.12.2018 14:00:00 14,0 6,4 5 3 - - ZO 1020,3 16 0,0
11.12.2018 13:00:00 12,7 6,1 8 4 - - O 1020,7 18 -
11.12.2018 12:00:00 12,1 6,2 9 5 - - ZO 1021,2 13 0,0
11.12.2018 11:00:00 11,1 5,8 5 3 - - OZO 1021,7 12 0,0
11.12.2018 10:00:00 9,9 5,9 8 4 - - ZZO 1021,1 20 -
11.12.2018 09:00:00 8,5 5,1 15 8 - - ZO 1021,0 7 0,0
11.12.2018 08:00:00 8,7 5,4 21 11 - - ZO 1020,8 6 0,0
11.12.2018 07:00:00 9,3 5,7 21 11 - - OZO 1021,1 9 -
11.12.2018 06:00:00 9,8 6,0 22 12 - - OZO 1021,7 7 0,0
11.12.2018 05:00:00 9,7 6,2 26 14 - - OZO 1022,6 7 0,0
11.12.2018 04:00:00 9,7 6,8 18 10 - - OZO 1023,5 9 -
11.12.2018 03:00:00 9,8 7,0 16 9 - - OZO 1024,2 - 0,0
11.12.2018 02:00:00 9,7 7,0 18 10 - - OZO 1024,9 - 0,0
11.12.2018 01:00:00 10,0 6,7 16 9 - - OZO 1025,7 10 -
11.12.2018 00:00:00 10,1 6,6 16 9 - - ZO 1026,6 6 0,0
10.12.2018 23:00:00 10,8 7,1 18 10 - - O 1027,0 7 0,0
10.12.2018 22:00:00 10,8 7,5 18 10 - - OZO 1027,6 10 -
10.12.2018 21:00:00 10,9 7,8 18 10 - - OZO 1028,4 - 0,0
10.12.2018 20:00:00 11,9 8,4 22 12 - - O 1029,0 6 0,0
10.12.2018 19:00:00 12,2 8,7 22 12 - - O 1029,3 10 -
10.12.2018 18:00:00 12,3 8,9 24 13 - - O 1029,5 6 0,0
10.12.2018 17:00:00 12,7 9,3 28 15 - - O 1029,8 7 0,0
10.12.2018 16:00:00 13,2 7,8 22 12 - - O 1030,0 10 -
10.12.2018 15:00:00 13,7 8,7 21 11 - - O 1030,5 11 0,0
10.12.2018 14:00:00 13,9 8,9 18 10 - - ONO 1031,1 9 0,0
10.12.2018 13:00:00 13,7 9,5 9 5 - - O 1032,1 6 -
10.12.2018 12:00:00 13,2 9,4 8 4 - - OZO 1033,1 6 0,0
10.12.2018 11:00:00 12,7 8,4 9 5 - - ZZO 1033,5 11 0,0
10.12.2018 10:00:00 11,5 8,0 9 5 - - Z 1033,8 15 -
10.12.2018 09:00:00 10,8 7,1 9 5 - - Z 1033,6 11 0,0
10.12.2018 08:00:00 11,2 7,3 9 5 - - ZZW 1033,9 12 0,0
10.12.2018 07:00:00 11,5 7,8 9 5 - - ZZW 1033,8 10 -
10.12.2018 06:00:00 11,9 8,2 8 4 - - ZZW 1033,6 11 0,0
10.12.2018 05:00:00 12,2 8,7 8 4 - - ZZW 1033,7 10 0,0
10.12.2018 04:00:00 12,2 9,0 8 4 - - ZW 1034,2 10 -
10.12.2018 03:00:00 12,1 9,5 9 5 - - ZZW 1034,4 7 0,0
10.12.2018 02:00:00 12,0 9,7 8 4 - - ZW 1034,6 6 0,0
10.12.2018 01:00:00 12,3 10,4 9 5 - - WZW 1034,9 10 -
10.12.2018 00:00:00 12,4 10,5 5 3 - - WZW 1035,1 3,5 0,0
09.12.2018 23:00:00 12,5 10,4 11 6 - - WNW 1035,1 3,8 0,2
09.12.2018 22:00:00 12,6 10,5 15 8 - - NW 1035,1 8 -
09.12.2018 21:00:00 13,1 10,6 18 10 - - W 1034,6 4,6 0,0
09.12.2018 20:00:00 13,3 10,7 21 11 - - W 1034,5 4,6 0,0
09.12.2018 19:00:00 13,3 10,7 21 11 - - WNW 1033,9 4,0 -
09.12.2018 18:00:00 13,4 10,6 22 12 - - WNW 1033,4 - 0,0
09.12.2018 17:00:00 13,5 11,0 22 12 - - W 1032,9 - 0,0
09.12.2018 16:00:00 13,6 10,6 24 13 - - W 1032,3 6 -
09.12.2018 15:00:00 13,8 10,6 24 13 - - W 1032,1 6 0,0
09.12.2018 14:00:00 14,0 11,0 21 11 - - W 1032,4 6 0,0
09.12.2018 13:00:00 13,9 10,9 26 14 - - W 1032,4 6 -
09.12.2018 12:00:00 13,9 11,1 24 13 - - WNW 1032,7 6 0,0
09.12.2018 11:00:00 13,8 11,7 24 13 - - W 1032,6 4,1 0,0
09.12.2018 10:00:00 13,6 11,6 24 13 - - W 1031,5 6 -
09.12.2018 09:00:00 13,6 11,6 26 14 - - W 1031,0 - 0,0
09.12.2018 08:00:00 13,9 12,1 26 14 - - W 1030,7 7 0,0
09.12.2018 07:00:00 13,9 11,9 21 11 - - W 1030,0 10 -
09.12.2018 06:00:00 13,6 11,5 16 9 - - W 1029,9 - 0,0
09.12.2018 05:00:00 14,2 11,7 24 13 - - W 1029,8 8 0,0
09.12.2018 04:00:00 14,2 11,7 22 12 - - W 1029,4 10 -
09.12.2018 03:00:00 13,7 11,0 16 9 - - WZW 1028,5 16 0,0
09.12.2018 02:00:00 14,2 10,6 21 11 - - W 1028,6 6 0,0
09.12.2018 01:00:00 14,4 9,2 18 10 - - WZW 1029,1 20 -
09.12.2018 00:00:00 14,7 8,0 16 9 - - WZW 1028,6 20 0,0
08.12.2018 23:00:00 14,1 6,7 13 7 - - WZW 1028,4 20 0,0
08.12.2018 22:00:00 12,7 7,6 11 6 - - WZW 1028,1 10 -
08.12.2018 21:00:00 12,4 6,4 11 6 - - WZW 1027,6 18 0,0
08.12.2018 20:00:00 12,7 4,4 9 5 - - Z 1027,4 20 0,0
08.12.2018 19:00:00 12,5 4,5 8 4 - - ZW 1027,9 20 -
08.12.2018 18:00:00 12,6 6,8 9 5 - - WZW 1028,1 6 0,0
08.12.2018 17:00:00 13,4 6,5 13 7 - - WNW 1027,9 10 0,0
08.12.2018 16:00:00 14,6 6,7 11 6 - - WNW 1027,7 20 -

tt = temperatuur
td = dauwpunt
ff = windsnelheid
fx = windstoten
dd = windrichting
ppp = luchtdruk
vv = zicht
rr = neerslag

Weerstations in de omgeving